Meteo pe oră la Dabrowka

Astăzi, 15 Aprilie, Joi

Timp Temperatura Precipitaţii Vânt Presiune Umiditate
00:00 0°C° 0.6 mm 5 m/s 755 mmHg 97%
01:00 0°C° 0.6 mm 5 m/s 755 mmHg 97%
02:00 0°C° 0.7 mm 5 m/s 754 mmHg 97%
03:00 0°C° 0.7 mm 5 m/s 754 mmHg 97%
04:00 0°C° 0.7 mm 4 m/s 754 mmHg 97%
05:00 0°C° 0.6 mm 4 m/s 754 mmHg 98%
06:00 0°C° 0.6 mm 4 m/s 754 mmHg 98%
07:00 0°C° 0.6 mm 4 m/s 754 mmHg 98%
08:00 +2°C° 0.2 mm 3 m/s 754 mmHg 98%
09:00 +2°C° 0.2 mm 3 m/s 754 mmHg 97%
10:00 +3°C° 0.2 mm 3 m/s 754 mmHg 97%
11:00 +3°C° 0.1 mm 3 m/s 754 mmHg 97%
12:00 +3°C° 0.1 mm 3 m/s 754 mmHg 97%
13:00 +3°C° 0.1 mm 3 m/s 754 mmHg 96%
14:00 +3°C° 0.1 mm 3 m/s 754 mmHg 97%
15:00 +5°C° 0.1 mm 2 m/s 754 mmHg 97%
16:00 +5°C° 0.1 mm 2 m/s 754 mmHg 98%
17:00 +5°C° 0.1 mm 2 m/s 754 mmHg 97%
18:00 +4°C° 0.1 mm 3 m/s 754 mmHg 97%
19:00 +4°C° 0.1 mm 3 m/s 754 mmHg 97%
20:00 +3°C° 0 mm 3 m/s 754 mmHg 97%
21:00 +3°C° 0 mm 3 m/s 754 mmHg 96%
22:00 +3°C° 0 mm 3 m/s 754 mmHg 96%
23:00 +3°C° 0.4 mm 3 m/s 754 mmHg 96%

Mâine, 16 Aprilie, Vineri

Timp Temperatura Precipitaţii Vânt Presiune Umiditate
00:00 +3°C° 0.4 mm 3 m/s 754 mmHg 97%
01:00 +3°C° 0.4 mm 3 m/s 754 mmHg 97%
02:00 +3°C° 0.4 mm 3 m/s 753 mmHg 97%
03:00 +3°C° 0.4 mm 3 m/s 753 mmHg 97%
04:00 +3°C° 0.4 mm 3 m/s 753 mmHg 97%
05:00 +3°C° 0.5 mm 4 m/s 753 mmHg 97%
06:00 +3°C° 0.5 mm 4 m/s 753 mmHg 96%
07:00 +3°C° 0.5 mm 4 m/s 753 mmHg 96%
08:00 +3°C° 0.4 mm 4 m/s 753 mmHg 95%
09:00 +3°C° 0.4 mm 4 m/s 753 mmHg 95%
10:00 +3°C° 0.4 mm 4 m/s 753 mmHg 94%
11:00 +4°C° 0.1 mm 4 m/s 754 mmHg 94%
12:00 +4°C° 0.1 mm 4 m/s 754 mmHg 94%
13:00 +5°C° 0.1 mm 4 m/s 754 mmHg 93%
14:00 +5°C° 0 mm 4 m/s 754 mmHg 93%
15:00 +6°C° 0 mm 4 m/s 754 mmHg 92%
16:00 +7°C° 0 mm 3 m/s 754 mmHg 92%
17:00 +7°C° 0.1 mm 3 m/s 754 mmHg 93%
18:00 +7°C° 0.1 mm 3 m/s 754 mmHg 95%
19:00 +5°C° 0.1 mm 4 m/s 754 mmHg 96%
20:00 +5°C° 0.2 mm 4 m/s 754 mmHg 96%
21:00 +5°C° 0.2 mm 3 m/s 754 mmHg 97%
22:00 +5°C° 0.2 mm 3 m/s 754 mmHg 97%
23:00 +5°C° 0.1 mm 3 m/s 754 mmHg 97%

Poimâine, 17 Aprilie, Sâmbătă

Timp Temperatura Precipitaţii Vânt Presiune Umiditate
00:00 +5°C° 0.1 mm 3 m/s 754 mmHg 97%
01:00 +5°C° 0.1 mm 3 m/s 754 mmHg 97%
02:00 +5°C° 0.3 mm 3 m/s 754 mmHg 98%
03:00 +6°C° 0.3 mm 2 m/s 754 mmHg 98%
04:00 +7°C° 0.3 mm 2 m/s 754 mmHg 98%
05:00 +7°C° 0.5 mm 2 m/s 755 mmHg 98%
06:00 +7°C° 0.5 mm 2 m/s 755 mmHg 97%
07:00 +7°C° 0.5 mm 2 m/s 755 mmHg 97%
08:00 +8°C° 0.1 mm 3 m/s 755 mmHg 92%
09:00 +8°C° 0.1 mm 3 m/s 755 mmHg 88%
10:00 +9°C° 0.1 mm 3 m/s 755 mmHg 83%
11:00 +8°C° 0.1 mm 4 m/s 756 mmHg 80%
12:00 +10°C° 0.1 mm 4 m/s 756 mmHg 77%
13:00 +10°C° 0.1 mm 4 m/s 756 mmHg 73%
14:00 +10°C° 0.1 mm 4 m/s 756 mmHg 73%
15:00 +10°C° 0.1 mm 4 m/s 756 mmHg 73%
16:00 +10°C° 0.1 mm 4 m/s 756 mmHg 73%
17:00 +9°C° 0.1 mm 3 m/s 756 mmHg 78%
18:00 +8°C° 0.1 mm 3 m/s 756 mmHg 83%
19:00 +7°C° 0.1 mm 3 m/s 757 mmHg 88%
20:00 +6°C° 0 mm 2 m/s 757 mmHg 89%
21:00 +6°C° 0 mm 2 m/s 757 mmHg 89%
22:00 +6°C° 0 mm 2 m/s 757 mmHg 90%
23:00 +5°C° 0 mm 2 m/s 757 mmHg 91%

18 Aprilie, Duminică

Timp Temperatura Precipitaţii Vânt Presiune Umiditate
00:00 +5°C° 0 mm 2 m/s 757 mmHg 92%
01:00 +4°C° 0 mm 2 m/s 757 mmHg 93%
02:00 +4°C° 0 mm 2 m/s 757 mmHg 93%
03:00 +4°C° 0 mm 2 m/s 757 mmHg 93%
04:00 +4°C° 0 mm 2 m/s 757 mmHg 93%
05:00 +5°C° 0 mm 2 m/s 757 mmHg 91%
06:00 +5°C° 0 mm 2 m/s 757 mmHg 89%
07:00 +5°C° 0 mm 3 m/s 757 mmHg 87%
08:00 +7°C° 0 mm 3 m/s 757 mmHg 83%
09:00 +8°C° 0 mm 3 m/s 757 mmHg 78%
10:00 +9°C° 0 mm 3 m/s 757 mmHg 73%
11:00 +10°C° 0 mm 3 m/s 757 mmHg 67%
12:00 +12°C° 0 mm 3 m/s 757 mmHg 60%
13:00 +13°C° 0 mm 3 m/s 757 mmHg 54%
14:00 +12°C° 0 mm 3 m/s 756 mmHg 58%
15:00 +13°C° 0 mm 2 m/s 756 mmHg 61%
16:00 +13°C° 0 mm 2 m/s 756 mmHg 65%
17:00 +11°C° 0 mm 3 m/s 756 mmHg 67%
18:00 +10°C° 0 mm 3 m/s 757 mmHg 69%
19:00 +9°C° 0 mm 3 m/s 757 mmHg 71%
20:00 +9°C° 0 mm 3 m/s 757 mmHg 73%
21:00 +9°C° 0 mm 3 m/s 757 mmHg 75%
22:00 +8°C° 0 mm 3 m/s 757 mmHg 77%
23:00 +8°C° 0 mm 3 m/s 756 mmHg 77%

19 Aprilie, Luni

Timp Temperatura Precipitaţii Vânt Presiune Umiditate
00:00 +8°C° 0 mm 2 m/s 756 mmHg 76%
01:00 +7°C° 0 mm 2 m/s 756 mmHg 75%
02:00 +7°C° 0 mm 2 m/s 756 mmHg 75%
03:00 +7°C° 0 mm 2 m/s 755 mmHg 75%
04:00 +7°C° 0 mm 2 m/s 755 mmHg 75%
05:00 +8°C° 0 mm 3 m/s 755 mmHg 75%
06:00 +8°C° 0 mm 3 m/s 755 mmHg 76%
07:00 +9°C° 0 mm 3 m/s 755 mmHg 77%
08:00 +9°C° 0.1 mm 3 m/s 755 mmHg 76%
09:00 +10°C° 0.1 mm 4 m/s 754 mmHg 75%
10:00 +11°C° 0.1 mm 4 m/s 754 mmHg 74%
11:00 +9°C° 0.1 mm 5 m/s 754 mmHg 75%
12:00 +9°C° 0.1 mm 5 m/s 753 mmHg 76%
13:00 +9°C° 0.1 mm 5 m/s 753 mmHg 77%
14:00 +10°C° 0.1 mm 4 m/s 753 mmHg 79%
15:00 +10°C° 0.1 mm 4 m/s 753 mmHg 81%
16:00 +10°C° 0.1 mm 3 m/s 752 mmHg 83%
17:00 +9°C° 0.1 mm 3 m/s 752 mmHg 86%
18:00 +9°C° 0.1 mm 3 m/s 752 mmHg 89%
19:00 +8°C° 0.1 mm 2 m/s 751 mmHg 91%
20:00 +8°C° 0.2 mm 3 m/s 751 mmHg 92%
21:00 +8°C° 0.2 mm 3 m/s 750 mmHg 93%
22:00 +8°C° 0.2 mm 3 m/s 750 mmHg 93%
23:00 +8°C° 0.2 mm 3 m/s 749 mmHg 94%

20 Aprilie, Marţi

Timp Temperatura Precipitaţii Vânt Presiune Umiditate
00:00 +8°C° 0.2 mm 3 m/s 749 mmHg 94%
01:00 +8°C° 0.2 mm 3 m/s 748 mmHg 94%
02:00 +7°C° 0.1 mm 4 m/s 748 mmHg 94%
03:00 +7°C° 0.1 mm 4 m/s 748 mmHg 94%
04:00 +7°C° 0.1 mm 4 m/s 747 mmHg 94%
05:00 +7°C° 0.1 mm 4 m/s 747 mmHg 94%
06:00 +7°C° 0.1 mm 4 m/s 747 mmHg 94%
07:00 +7°C° 0.1 mm 4 m/s 746 mmHg 95%
08:00 +7°C° 0.1 mm 5 m/s 746 mmHg 94%
09:00 +8°C° 0.1 mm 5 m/s 746 mmHg 93%
10:00 +8°C° 0.1 mm 5 m/s 745 mmHg 93%
11:00 +7°C° 0.1 mm 5 m/s 745 mmHg 92%
12:00 +7°C° 0.1 mm 5 m/s 745 mmHg 91%
13:00 +7°C° 0.1 mm 4 m/s 745 mmHg 90%
14:00 +7°C° 0.2 mm 4 m/s 744 mmHg 90%
15:00 +7°C° 0.2 mm 4 m/s 744 mmHg 91%
16:00 +6°C° 0.2 mm 4 m/s 744 mmHg 91%
17:00 +6°C° 0.5 mm 4 m/s 744 mmHg 92%
18:00 +6°C° 0.5 mm 4 m/s 744 mmHg 92%
19:00 +5°C° 0.5 mm 4 m/s 744 mmHg 92%
20:00 +5°C° 0.2 mm 4 m/s 744 mmHg 93%
21:00 +5°C° 0.2 mm 4 m/s 743 mmHg 93%
22:00 +4°C° 0.2 mm 4 m/s 743 mmHg 93%
23:00 +5°C° 0.2 mm 4 m/s 743 mmHg 93%
Arată mai mult

Formular de consimțământ

Meteoprog și furnizorii noștri de servicii pot stoca și accesa date personale, precum cookies, identificatori de dispozitiv sau alte tehnologii similare pe dispozitivul dumneavoastră și procesa astfel de date pentru a personaliza conținutul și reclamele, dar și pentru a oferi caracteristici de social media și pentru a analiza traficul.

  • Stocarea și/sau accesarea informațiilor pe dispozitivul dumneavoastră

    Cookies, identificatori de dispozitiv sau alte informații pot fi stocate sau accesate pe dispozitiv în scopurile indicate mai sus.

  • Reclame și conținut personalizat, evaluarea reclamelor și a conținutului, informații despre audiențe și dezvoltarea produselor

    Reclamele și conținutul pot fi personalizate pe baza unui profil. Pot fi adăugate date suplimentare pentru a personaliza mai bine reclamele și conținutul. Performanța reclamelor și conținutului poate fi măsurată. Pot fi obținute informații despre utilizatorii care au văzut reclamele și conținutul. Aceste date pot fi utilizate pentru a dezvolta sau îmbunătăți experiența utilizatorilor, sistemele și software-ul.

Dând clic pe ‘Sunt de acord’, permiteți utilizarea cookie-urilor menționate, a identificatorilor de dispozitiv, balizelor web sau altor tehnologii similare. Setările pot fi modificate din browser-ul dispozitivului dumneavoastră.

În anumite scopuri, interesele legitime pot prima asupra consimțământului. Puteți citi mai multe informații în acest sens în Politica privind Confidențialitatea Datelor și Cookie.